When you browse on this site, cookies collect data to enhance your experience and personalize the content and advertising you see.
Visit our Privacy Policy to learn more. By continuing to use the site, you agree to this use of cookies and data.
  • In Hungary
  • List of Countries
  • For 7 days
  • Water Temperature
  • Weather Map
  • News
  • Weather Widgets
  • user-avatar
    Login

    Hourly Weather Riga

    Today, 16 December, Monday

    Time Temperature Precipitation Wind Pressure Humidity
    00:00 0°C° 0.1 mm 7 mps 746 mmHg 90%
    01:00 +2°C° 0.1 mm 7 mps 746 mmHg 89%
    02:00 +2°C° 0 mm 7 mps 745 mmHg 88%
    03:00 +2°C° 0.3 mm 7 mps 745 mmHg 85%
    04:00 +3°C° 0.3 mm 7 mps 744 mmHg 83%
    05:00 +3°C° 0.3 mm 7 mps 744 mmHg 80%
    06:00 +2°C° 0.1 mm 8 mps 745 mmHg 81%
    07:00 +2°C° 0.1 mm 8 mps 745 mmHg 82%
    08:00 +2°C° 0.1 mm 8 mps 746 mmHg 83%
    09:00 +2°C° 0.2 mm 8 mps 747 mmHg 80%
    10:00 +2°C° 0.2 mm 9 mps 748 mmHg 76%
    11:00 +2°C° 0.2 mm 9 mps 750 mmHg 73%
    12:00 +2°C° 0 mm 8 mps 751 mmHg 73%
    13:00 +3°C° 0 mm 7 mps 752 mmHg 72%
    14:00 +3°C° 0 mm 5 mps 753 mmHg 72%
    15:00 +3°C° 0 mm 5 mps 754 mmHg 77%
    16:00 +3°C° 0 mm 4 mps 754 mmHg 82%
    17:00 +3°C° 0 mm 4 mps 755 mmHg 86%
    18:00 +1°C° 0 mm 4 mps 755 mmHg 88%
    19:00 +1°C° 0 mm 4 mps 755 mmHg 90%
    20:00 +1°C° 0 mm 4 mps 756 mmHg 92%
    21:00 +1°C° 0 mm 4 mps 755 mmHg 91%
    22:00 +1°C° 0 mm 5 mps 755 mmHg 90%
    23:00 +1°C° 0 mm 5 mps 755 mmHg 90%

    Tomorrow, 17 December, Tuesday

    Time Temperature Precipitation Wind Pressure Humidity
    00:00 +1°C° 0 mm 5 mps 755 mmHg 89%
    01:00 +1°C° 0 mm 5 mps 755 mmHg 88%
    02:00 +1°C° 0 mm 5 mps 755 mmHg 87%
    03:00 +1°C° 0 mm 5 mps 755 mmHg 88%
    04:00 +2°C° 0 mm 5 mps 755 mmHg 88%
    05:00 +2°C° 0 mm 5 mps 754 mmHg 88%
    06:00 +3°C° 0 mm 4 mps 755 mmHg 90%
    07:00 +3°C° 0 mm 4 mps 755 mmHg 91%
    08:00 +3°C° 0 mm 3 mps 755 mmHg 93%
    09:00 +4°C° 0 mm 3 mps 755 mmHg 93%
    10:00 +4°C° 0 mm 3 mps 755 mmHg 92%
    11:00 +4°C° 0 mm 3 mps 755 mmHg 92%
    12:00 +4°C° 0 mm 3 mps 755 mmHg 92%
    13:00 +4°C° 0 mm 3 mps 755 mmHg 92%
    14:00 +5°C° 0 mm 2 mps 755 mmHg 92%
    15:00 +5°C° 0.1 mm 2 mps 756 mmHg 94%
    16:00 +5°C° 0.1 mm 2 mps 756 mmHg 95%
    17:00 +5°C° 0.1 mm 2 mps 756 mmHg 96%
    18:00 +4°C° 0.1 mm 3 mps 756 mmHg 96%
    19:00 +4°C° 0.1 mm 3 mps 756 mmHg 95%
    20:00 +4°C° 0.1 mm 3 mps 756 mmHg 95%
    21:00 +4°C° 0 mm 3 mps 755 mmHg 94%
    22:00 +4°C° 0 mm 4 mps 755 mmHg 94%
    23:00 +4°C° 0 mm 4 mps 755 mmHg 93%

    Day after tomorrow, 18 December, Wednesday

    Time Temperature Precipitation Wind Pressure Humidity
    00:00 +4°C° 0 mm 4 mps 755 mmHg 92%
    01:00 +4°C° 0 mm 4 mps 754 mmHg 91%
    02:00 +4°C° 0 mm 4 mps 754 mmHg 91%
    03:00 +4°C° 0 mm 4 mps 754 mmHg 91%
    04:00 +4°C° 0 mm 4 mps 753 mmHg 92%
    05:00 +4°C° 0 mm 4 mps 753 mmHg 92%
    06:00 +4°C° 0 mm 4 mps 753 mmHg 91%
    07:00 +3°C° 0 mm 5 mps 753 mmHg 89%
    08:00 +5°C° 0 mm 5 mps 753 mmHg 87%
    09:00 +5°C° 0 mm 5 mps 752 mmHg 86%
    10:00 +5°C° 0 mm 6 mps 752 mmHg 84%
    11:00 +5°C° 0 mm 6 mps 752 mmHg 82%
    12:00 +6°C° 0 mm 7 mps 752 mmHg 80%
    13:00 +8°C° 0 mm 7 mps 752 mmHg 78%
    14:00 +9°C° 0 mm 8 mps 752 mmHg 77%
    15:00 +6°C° 0 mm 7 mps 752 mmHg 75%
    16:00 +5°C° 0 mm 7 mps 753 mmHg 74%
    17:00 +4°C° 0 mm 7 mps 753 mmHg 72%
    18:00 +4°C° 0 mm 7 mps 754 mmHg 72%
    19:00 +4°C° 0 mm 7 mps 755 mmHg 71%
    20:00 +4°C° 0 mm 7 mps 755 mmHg 70%
    21:00 +3°C° 0 mm 7 mps 756 mmHg 73%
    22:00 +3°C° 0 mm 6 mps 756 mmHg 75%
    23:00 +3°C° 0 mm 6 mps 757 mmHg 78%

    19 December, Thursday

    Time Temperature Precipitation Wind Pressure Humidity
    00:00 +3°C° 0 mm 6 mps 757 mmHg 78%
    01:00 +3°C° 0 mm 6 mps 758 mmHg 79%
    02:00 +3°C° 0 mm 6 mps 758 mmHg 79%
    03:00 +3°C° 0 mm 6 mps 758 mmHg 79%
    04:00 +3°C° 0 mm 6 mps 759 mmHg 78%
    05:00 +3°C° 0 mm 5 mps 759 mmHg 78%
    06:00 +3°C° 0 mm 5 mps 760 mmHg 79%
    07:00 +3°C° 0 mm 5 mps 760 mmHg 80%
    08:00 +4°C° 0 mm 4 mps 761 mmHg 80%
    09:00 +3°C° 0 mm 4 mps 761 mmHg 82%
    10:00 +3°C° 0 mm 4 mps 762 mmHg 83%
    11:00 +3°C° 0 mm 3 mps 763 mmHg 85%
    12:00 +3°C° 0 mm 3 mps 763 mmHg 85%
    13:00 +3°C° 0 mm 3 mps 763 mmHg 85%
    14:00 +4°C° 0 mm 2 mps 764 mmHg 84%
    15:00 +3°C° 0 mm 2 mps 764 mmHg 87%
    16:00 +3°C° 0 mm 2 mps 764 mmHg 90%
    17:00 +3°C° 0 mm 1 mps 764 mmHg 93%
    18:00 +3°C° 0 mm 1 mps 764 mmHg 93%
    19:00 +2°C° 0 mm 1 mps 765 mmHg 94%
    20:00 +2°C° 0 mm 1 mps 765 mmHg 94%
    21:00 +1°C° 0 mm 2 mps 765 mmHg 94%
    22:00 +1°C° 0 mm 2 mps 765 mmHg 94%
    23:00 +1°C° 0 mm 2 mps 765 mmHg 94%

    20 December, Friday

    Time Temperature Precipitation Wind Pressure Humidity
    00:00 -1°C° 0 mm 2 mps 765 mmHg 94%
    01:00 -1°C° 0 mm 2 mps 765 mmHg 94%
    02:00 -1°C° 0 mm 2 mps 764 mmHg 94%
    03:00 -1°C° 0 mm 2 mps 764 mmHg 94%
    04:00 -1°C° 0 mm 2 mps 764 mmHg 94%
    05:00 -1°C° 0 mm 2 mps 764 mmHg 95%
    06:00 -1°C° 0 mm 3 mps 763 mmHg 94%
    07:00 -1°C° 0 mm 3 mps 763 mmHg 93%
    08:00 -1°C° 0 mm 3 mps 763 mmHg 92%
    09:00 -1°C° 0 mm 4 mps 763 mmHg 87%
    10:00 -1°C° 0 mm 4 mps 762 mmHg 82%
    11:00 0°C° 0 mm 4 mps 762 mmHg 77%
    12:00 0°C° 0 mm 4 mps 762 mmHg 73%
    13:00 0°C° 0 mm 4 mps 761 mmHg 70%
    14:00 +1°C° 0 mm 5 mps 760 mmHg 67%
    15:00 0°C° 0 mm 5 mps 760 mmHg 67%
    16:00 0°C° 0 mm 5 mps 759 mmHg 67%
    17:00 0°C° 0 mm 5 mps 759 mmHg 67%
    18:00 0°C° 0 mm 5 mps 758 mmHg 66%
    19:00 0°C° 0 mm 5 mps 758 mmHg 65%
    20:00 0°C° 0 mm 5 mps 758 mmHg 64%
    21:00 0°C° 0 mm 5 mps 757 mmHg 65%
    22:00 0°C° 0 mm 5 mps 757 mmHg 65%
    23:00 0°C° 0 mm 5 mps 757 mmHg 66%

    21 December, Saturday

    Time Temperature Precipitation Wind Pressure Humidity
    00:00 0°C° 0 mm 5 mps 757 mmHg 66%
    01:00 0°C° 0 mm 5 mps 756 mmHg 66%
    02:00 0°C° 0 mm 5 mps 756 mmHg 66%
    03:00 0°C° 0 mm 5 mps 755 mmHg 67%
    04:00 0°C° 0 mm 5 mps 755 mmHg 69%
    05:00 0°C° 0 mm 5 mps 755 mmHg 70%
    06:00 -1°C° 0 mm 5 mps 754 mmHg 73%
    07:00 -1°C° 0 mm 5 mps 754 mmHg 75%
    08:00 -1°C° 0 mm 5 mps 754 mmHg 78%
    09:00 -1°C° 0 mm 5 mps 754 mmHg 79%
    10:00 0°C° 0 mm 5 mps 754 mmHg 80%
    11:00 -1°C° 0 mm 6 mps 754 mmHg 81%
    12:00 0°C° 0 mm 5 mps 754 mmHg 83%
    13:00 +1°C° 0 mm 5 mps 753 mmHg 84%
    14:00 +1°C° 0 mm 5 mps 753 mmHg 85%
    15:00 +1°C° 0 mm 5 mps 753 mmHg 86%
    16:00 +1°C° 0 mm 5 mps 753 mmHg 87%
    17:00 +1°C° 0 mm 5 mps 753 mmHg 87%
    18:00 +1°C° 0.1 mm 5 mps 753 mmHg 89%
    19:00 +1°C° 0.1 mm 5 mps 753 mmHg 90%
    20:00 +1°C° 0.1 mm 5 mps 753 mmHg 91%
    21:00 +1°C° 0.1 mm 5 mps 753 mmHg 92%
    22:00 +1°C° 0.1 mm 5 mps 752 mmHg 92%
    23:00 +2°C° 0.1 mm 5 mps 752 mmHg 92%
    Show more